SBLOSBKP

Guest
Details From SBLO - Londrina
To SBKP - Sao Paulo Viracopos
Flight Number -
Tags decoded
Created
Modified
Stats Distance 221 nm / 410 km
Max Altitude 0 ft / 0 m
Waypoints 2
Social Downloads 0
Likes 0
Share VATSIM

Download

Looking for another format? Having issues loading an existing format? Contact us
Advertisement - Login to hide

Notes

Requested: SBLO DEXOV UZ65 EDMOX UM411 PUPSI SBKP Unmatched points: DEXOV UZ65 EDMOX UM411 PUPSI

Route

SBLO SBKP

ID Type Via Altitude (ft/m) Position (lat/lon) Dist (leg/tot) Name
O SBLO APT - 0 / 0 -23.33362 / -51.13007 - / 0 nm Londrina
O SBKP APT - 0 / 0 -23.00738 / -47.13452 221 / 221 nm Sao Paulo Viracopos

Altitude Profile

Advertisement - Login to hide

Weather


0- 5 10 15 20 25 30 35+ Temperature / °C

Clouds and Precipitation
Forecast for 2019-01-23 06:00 UTC. Updated 2 hours ago

Ground ~20,000 ft ~40,000 ft Winds

SBLO

Details ICAO SBLO (LDB)
Name Governador Jose Richa Airport
Region Brazil
Timezone America/Sao_Paulo (UTC-2.0)
Stats Elevation 1,868 ft / 569 m (AMSL)
Location -23.333600° -51.130100°
Runways 1
Magnetic Variation 19.242° W

METAR

SBLO 230500Z 00000KT CAVOK 26/22 Q1016

Decode

TAF

TAF TAF SBLO 222100Z 2300/2312 00000KT CAVOK TX29/2300Z TN25/2308Z RMK PDJ

Decode

Departure Runways

ID Width Length Bearing (true/mag) Surface Threshold Overrun Markings Lighting
13 148 ft / 45 m 6,888 ft / 2,100 m 110.10° / 129.35° ASPHALT 1,083 ft / 330 m 0 ft / 0 m APP CENTERLINE EDGE THRESHOLD REIL-OMNI
31 148 ft / 45 m 6,888 ft / 2,100 m 290.10° / 309.34° ASPHALT 0 ft / 0 m 0 ft / 0 m APP CENTERLINE EDGE THRESHOLD REIL-OMNI

SBKP

Details ICAO SBKP (VCP)
Name Viracopos Intl
Region Brazil
Timezone America/Sao_Paulo (UTC-2.0)
Stats Elevation 2,156 ft / 657 m (AMSL)
Location -23.007400° -47.134500°
Runways 1
Magnetic Variation 21.335° W

METAR

SBKP 230500Z 11005KT CAVOK 23/20 Q1017

Decode

TAF

TAF SBKP 222130Z 2300/2324 27005KT 8000 SCT045TN22/2309Z TX34/2318Z BECMG 2301/2303 13010KT FEW030 BECMG 2304/2306 11007KT NSC BECMG 2309/2311 04007KT BECMG 2313/2315 33007KT SCT040 BECMG 2319/2321 21008KT PROB40 2321/2323 14010KT TSRA BKN035 FEW045CB RMK PHG

Decode

Destination Runways

ID Width Length Bearing (true/mag) Surface Threshold Overrun Markings Lighting
15 148 ft / 45 m 10,666 ft / 3,251 m 127.88° / 149.21° ASPHALT 0 ft / 0 m 171 ft / 52 m PREC-APP CENTERLINE EDGE THRESHOLD MALSR TDZ REIL-OMNI
33 148 ft / 45 m 10,666 ft / 3,251 m 307.87° / 329.20° ASPHALT 308 ft / 94 m 187 ft / 57 m PREC-APP CENTERLINE EDGE THRESHOLD TDZ REIL-OMNI

Approach Navaids

Runway Type Ident Frequency Range Bearing (true/mag) Slope Elevation
15 MM MM - - 127.90° / 149.24 ° - 2,170 ft / 661 m (AMSL)
15 GS IKP 110.30 MHz 10 nm / 19 km 128.80° / 150.14 ° 3.00° 2,170 ft / 661 m (AMSL)
15 OM OM - - 127.90° / 149.24 ° - 2,170 ft / 661 m (AMSL)
15 LOC-ILS IKP 110.30 MHz 18 nm / 33 km 127.95° / 149.29 ° - 2,170 ft / 661 m (AMSL)

Popular Alternatives